Time,TemperatureF,DewpointF,PressureIn,WindDirection,WindDirectionDegrees,WindSpeedMPH,WindSpeedGustMPH,Humidity,HourlyPrecipIn,Conditions,Clouds,dailyrainin,SoftwareType,DateUTC
2013-05-08 00:02:00,62.0,53.0,30.20,North,-999,-999.0,-999.0,71,-99.99,,,-99.99,,2013-05-08 04:02:00,
2013-05-08 00:13:00,62.0,52.0,30.20,North,-999,-999.0,-999.0,70,-99.99,,,-99.99,,2013-05-08 04:13:00,
2013-05-08 00:23:00,62.0,52.0,30.20,North,-999,-999.0,-999.0,70,-99.99,,,-99.99,,2013-05-08 04:23:00,
2013-05-08 00:33:00,61.0,52.0,30.20,North,-999,-999.0,-999.0,71,-99.99,,,-99.99,,2013-05-08 04:33:00,
2013-05-08 00:43:00,61.0,52.0,30.20,North,-999,-999.0,-999.0,70,-99.99,,,-99.99,,2013-05-08 04:43:00,
2013-05-08 00:52:00,61.0,52.0,30.20,North,-999,-999.0,-999.0,70,-99.99,,,-99.99,,2013-05-08 04:52:00,
2013-05-08 01:02:00,61.0,52.0,30.20,North,-999,-999.0,-999.0,71,-99.99,,,-99.99,,2013-05-08 05:02:00,
2013-05-08 01:12:00,61.0,51.0,30.20,North,-999,-999.0,-999.0,70,-99.99,,,-99.99,,2013-05-08 05:12:00,
2013-05-08 01:22:00,61.0,51.0,30.20,North,-999,-999.0,-999.0,70,-99.99,,,-99.99,,2013-05-08 05:22:00,
2013-05-08 01:32:00,60.0,51.0,30.20,North,-999,-999.0,-999.0,71,-99.99,,,-99.99,,2013-05-08 05:32:00,
2013-05-08 01:42:00,60.0,51.0,30.19,North,-999,-999.0,-999.0,71,-99.99,,,-99.99,,2013-05-08 05:42:00,
2013-05-08 01:52:00,60.0,51.0,30.19,North,-999,-999.0,-999.0,71,-99.99,,,-99.99,,2013-05-08 05:52:00,
2013-05-08 02:02:00,60.0,51.0,30.19,North,-999,-999.0,-999.0,72,-99.99,,,-99.99,,2013-05-08 06:02:00,
2013-05-08 02:12:00,60.0,52.0,30.19,North,-999,-999.0,-999.0,73,-99.99,,,-99.99,,2013-05-08 06:12:00,
2013-05-08 02:21:00,60.0,52.0,30.19,North,-999,-999.0,-999.0,73,-99.99,,,-99.99,,2013-05-08 06:21:00,
2013-05-08 02:32:00,60.0,51.0,30.18,North,-999,-999.0,-999.0,71,-99.99,,,-99.99,,2013-05-08 06:32:00,
2013-05-08 02:42:00,60.0,51.0,30.18,North,-999,-999.0,-999.0,73,-99.99,,,-99.99,,2013-05-08 06:42:00,
2013-05-08 02:52:00,60.0,51.0,30.18,North,-999,-999.0,-999.0,73,-99.99,,,-99.99,,2013-05-08 06:52:00,
2013-05-08 03:02:00,60.0,51.0,30.18,North,-999,-999.0,-999.0,73,-99.99,,,-99.99,,2013-05-08 07:02:00,
2013-05-08 03:11:00,60.0,51.0,30.18,North,-999,-999.0,-999.0,74,-99.99,,,-99.99,,2013-05-08 07:11:00,
2013-05-08 03:21:00,60.0,51.0,30.18,North,-999,-999.0,-999.0,74,-99.99,,,-99.99,,2013-05-08 07:21:00,
2013-05-08 03:32:00,61.0,52.0,30.18,North,-999,-999.0,-999.0,71,-99.99,,,-99.99,,2013-05-08 07:32:00,
2013-05-08 03:42:00,59.0,52.0,30.18,North,-999,-999.0,-999.0,77,-99.99,,,-99.99,,2013-05-08 07:42:00,
2013-05-08 03:52:00,59.0,52.0,30.18,North,-999,-999.0,-999.0,77,-99.99,,,-99.99,,2013-05-08 07:52:00,
2013-05-08 04:02:00,59.0,52.0,30.18,North,-999,-999.0,-999.0,78,-99.99,,,-99.99,,2013-05-08 08:02:00,
2013-05-08 04:12:00,59.0,52.0,30.18,North,-999,-999.0,-999.0,78,-99.99,,,-99.99,,2013-05-08 08:12:00,
2013-05-08 04:21:00,58.0,52.0,30.19,North,-999,-999.0,-999.0,82,-99.99,,,-99.99,,2013-05-08 08:21:00,
2013-05-08 04:32:00,57.0,52.0,30.18,North,-999,-999.0,-999.0,81,-99.99,,,-99.99,,2013-05-08 08:32:00,
2013-05-08 04:42:00,56.0,51.0,30.19,North,-999,-999.0,-999.0,84,-99.99,,,-99.99,,2013-05-08 08:42:00,
2013-05-08 04:51:00,56.0,51.0,30.19,North,-999,-999.0,-999.0,84,-99.99,,,-99.99,,2013-05-08 08:51:00,
2013-05-08 05:02:00,58.0,53.0,30.19,North,-999,-999.0,-999.0,84,-99.99,,,-99.99,,2013-05-08 09:02:00,
2013-05-08 05:11:00,58.0,53.0,30.19,North,-999,-999.0,-999.0,84,-99.99,,,-99.99,,2013-05-08 09:11:00,
2013-05-08 05:21:00,56.0,51.0,30.19,North,-999,-999.0,-999.0,83,-99.99,,,-99.99,,2013-05-08 09:21:00,
2013-05-08 05:32:00,56.0,52.0,30.19,North,-999,-999.0,-999.0,84,-99.99,,,-99.99,,2013-05-08 09:32:00,
2013-05-08 05:42:00,56.0,52.0,30.19,North,-999,-999.0,-999.0,84,-99.99,,,-99.99,,2013-05-08 09:42:00,
2013-05-08 05:52:00,56.0,51.0,30.19,North,-999,-999.0,-999.0,83,-99.99,,,-99.99,,2013-05-08 09:52:00,
2013-05-08 06:02:00,57.0,51.0,30.20,North,-999,-999.0,-999.0,81,-99.99,,,-99.99,,2013-05-08 10:02:00,
2013-05-08 06:12:00,57.0,51.0,30.20,North,-999,-999.0,-999.0,81,-99.99,,,-99.99,,2013-05-08 10:12:00,
2013-05-08 06:22:00,56.0,51.0,30.20,North,-999,-999.0,-999.0,84,-99.99,,,-99.99,,2013-05-08 10:22:00,
2013-05-08 06:33:00,56.0,51.0,30.20,North,-999,-999.0,-999.0,85,-99.99,,,-99.99,,2013-05-08 10:33:00,
2013-05-08 06:42:00,56.0,52.0,30.21,North,-999,-999.0,-999.0,84,-99.99,,,-99.99,,2013-05-08 10:42:00,
2013-05-08 06:52:00,56.0,52.0,30.21,North,-999,-999.0,-999.0,84,-99.99,,,-99.99,,2013-05-08 10:52:00,
2013-05-08 07:02:00,58.0,53.0,30.22,North,-999,-999.0,-999.0,82,-99.99,,,-99.99,,2013-05-08 11:02:00,
2013-05-08 07:11:00,58.0,53.0,30.22,North,-999,-999.0,-999.0,82,-99.99,,,-99.99,,2013-05-08 11:11:00,
2013-05-08 07:22:00,59.0,53.0,30.22,North,-999,-999.0,-999.0,80,-99.99,,,-99.99,,2013-05-08 11:22:00,
2013-05-08 07:32:00,59.0,53.0,30.22,North,-999,-999.0,-999.0,80,-99.99,,,-99.99,,2013-05-08 11:32:00,
2013-05-08 07:42:00,59.0,53.0,30.22,North,-999,-999.0,-999.0,80,-99.99,,,-99.99,,2013-05-08 11:42:00,
2013-05-08 07:52:00,60.0,53.0,30.23,North,-999,-999.0,-999.0,77,-99.99,,,-99.99,,2013-05-08 11:52:00,
2013-05-08 08:02:00,60.0,54.0,30.23,North,-999,-999.0,-999.0,78,-99.99,,,-99.99,,2013-05-08 12:02:00,
2013-05-08 08:11:00,61.0,55.0,30.24,North,-999,-999.0,-999.0,79,-99.99,,,-99.99,,2013-05-08 12:11:00,
2013-05-08 08:21:00,61.0,55.0,30.24,North,-999,-999.0,-999.0,79,-99.99,,,-99.99,,2013-05-08 12:21:00,
2013-05-08 08:32:00,62.0,56.0,30.24,North,-999,-999.0,-999.0,79,-99.99,,,-99.99,,2013-05-08 12:32:00,
2013-05-08 08:41:00,64.0,55.0,30.23,North,-999,-999.0,-999.0,73,-99.99,,,-99.99,,2013-05-08 12:41:00,
2013-05-08 08:52:00,64.0,55.0,30.23,North,-999,-999.0,-999.0,73,-99.99,,,-99.99,,2013-05-08 12:52:00,
2013-05-08 09:01:00,66.0,55.0,30.23,North,-999,-999.0,-999.0,66,-99.99,,,-99.99,,2013-05-08 13:01:00,
2013-05-08 09:11:00,65.0,55.0,30.23,North,-999,-999.0,-999.0,68,-99.99,,,-99.99,,2013-05-08 13:11:00,
2013-05-08 09:21:00,65.0,55.0,30.23,North,-999,-999.0,-999.0,68,-99.99,,,-99.99,,2013-05-08 13:21:00,
2013-05-08 09:32:00,66.0,55.0,30.23,North,-999,-999.0,-999.0,66,-99.99,,,-99.99,,2013-05-08 13:32:00,
2013-05-08 09:42:00,66.0,55.0,30.23,North,-999,-999.0,-999.0,66,-99.99,,,-99.99,,2013-05-08 13:42:00,
2013-05-08 09:52:00,67.0,56.0,30.23,North,-999,-999.0,-999.0,66,-99.99,,,-99.99,,2013-05-08 13:52:00,
2013-05-08 10:02:00,68.0,56.0,30.23,North,-999,-999.0,-999.0,65,-99.99,,,-99.99,,2013-05-08 14:02:00,
2013-05-08 10:11:00,70.0,56.0,30.23,North,-999,-999.0,-999.0,61,-99.99,,,-99.99,,2013-05-08 14:11:00,
2013-05-08 10:21:00,70.0,56.0,30.23,North,-999,-999.0,-999.0,61,-99.99,,,-99.99,,2013-05-08 14:21:00,
2013-05-08 10:32:00,71.0,57.0,30.23,North,-999,-999.0,-999.0,60,-99.99,,,-99.99,,2013-05-08 14:32:00,
2013-05-08 10:42:00,71.0,58.0,30.23,North,-999,-999.0,-999.0,62,-99.99,,,-99.99,,2013-05-08 14:42:00,
2013-05-08 10:52:00,71.0,58.0,30.23,North,-999,-999.0,-999.0,62,-99.99,,,-99.99,,2013-05-08 14:52:00,
2013-05-08 11:02:00,71.0,57.0,30.23,North,-999,-999.0,-999.0,59,-99.99,,,-99.99,,2013-05-08 15:02:00,
2013-05-08 11:11:00,72.0,56.0,30.22,North,-999,-999.0,-999.0,57,-99.99,,,-99.99,,2013-05-08 15:11:00,
2013-05-08 11:21:00,72.0,56.0,30.22,North,-999,-999.0,-999.0,57,-99.99,,,-99.99,,2013-05-08 15:21:00,
2013-05-08 11:33:00,74.0,57.0,30.21,North,-999,-999.0,-999.0,53,-99.99,,,-99.99,,2013-05-08 15:33:00,
2013-05-08 11:42:00,72.0,55.0,30.21,North,-999,-999.0,-999.0,55,-99.99,,,-99.99,,2013-05-08 15:42:00,
2013-05-08 11:52:00,72.0,55.0,30.21,North,-999,-999.0,-999.0,55,-99.99,,,-99.99,,2013-05-08 15:52:00,
2013-05-08 12:03:00,75.0,55.0,30.21,North,-999,-999.0,-999.0,50,-99.99,,,-99.99,,2013-05-08 16:03:00,
2013-05-08 12:12:00,75.0,55.0,30.21,North,-999,-999.0,-999.0,50,-99.99,,,-99.99,,2013-05-08 16:12:00,
2013-05-08 12:23:00,74.0,54.0,30.20,North,-999,-999.0,-999.0,49,-99.99,,,-99.99,,2013-05-08 16:23:00,
2013-05-08 12:33:00,74.0,54.0,30.19,North,-999,-999.0,-999.0,49,-99.99,,,-99.99,,2013-05-08 16:33:00,
2013-05-08 12:42:00,73.0,54.0,30.19,North,-999,-999.0,-999.0,50,-99.99,,,-99.99,,2013-05-08 16:42:00,
2013-05-08 12:52:00,73.0,54.0,30.19,North,-999,-999.0,-999.0,50,-99.99,,,-99.99,,2013-05-08 16:52:00,
2013-05-08 13:02:00,73.0,54.0,30.19,North,-999,-999.0,-999.0,50,-99.99,,,-99.99,,2013-05-08 17:02:00,
2013-05-08 13:12:00,73.0,54.0,30.19,North,-999,-999.0,-999.0,50,-99.99,,,-99.99,,2013-05-08 17:12:00,
2013-05-08 13:22:00,73.0,53.0,30.19,North,-999,-999.0,-999.0,49,-99.99,,,-99.99,,2013-05-08 17:22:00,
2013-05-08 13:32:00,72.0,55.0,30.19,North,-999,-999.0,-999.0,54,-99.99,,,-99.99,,2013-05-08 17:32:00,
2013-05-08 13:41:00,72.0,55.0,30.19,North,-999,-999.0,-999.0,54,-99.99,,,-99.99,,2013-05-08 17:41:00,
2013-05-08 13:52:00,71.0,56.0,30.19,North,-999,-999.0,-999.0,57,-99.99,,,-99.99,,2013-05-08 17:52:00,
2013-05-08 14:02:00,72.0,55.0,30.18,North,-999,-999.0,-999.0,55,-99.99,,,-99.99,,2013-05-08 18:02:00,
2013-05-08 14:12:00,73.0,56.0,30.18,North,-999,-999.0,-999.0,55,-99.99,,,-99.99,,2013-05-08 18:12:00,
2013-05-08 14:21:00,73.0,56.0,30.18,North,-999,-999.0,-999.0,55,-99.99,,,-99.99,,2013-05-08 18:21:00,
2013-05-08 14:32:00,72.0,56.0,30.17,North,-999,-999.0,-999.0,55,-99.99,,,-99.99,,2013-05-08 18:32:00,
2013-05-08 14:42:00,74.0,56.0,30.16,North,-999,-999.0,-999.0,52,-99.99,,,-99.99,,2013-05-08 18:42:00,
2013-05-08 14:52:00,74.0,56.0,30.16,North,-999,-999.0,-999.0,52,-99.99,,,-99.99,,2013-05-08 18:52:00,
2013-05-08 15:01:00,74.0,55.0,30.15,North,-999,-999.0,-999.0,51,-99.99,,,-99.99,,2013-05-08 19:01:00,
2013-05-08 15:11:00,74.0,55.0,30.15,North,-999,-999.0,-999.0,51,-99.99,,,-99.99,,2013-05-08 19:11:00,
2013-05-08 15:22:00,72.0,55.0,30.15,North,-999,-999.0,-999.0,54,-99.99,,,-99.99,,2013-05-08 19:22:00,
2013-05-08 15:32:00,71.0,55.0,30.15,North,-999,-999.0,-999.0,56,-99.99,,,-99.99,,2013-05-08 19:32:00,
2013-05-08 15:42:00,71.0,55.0,30.14,North,-999,-999.0,-999.0,56,-99.99,,,-99.99,,2013-05-08 19:42:00,
2013-05-08 15:52:00,71.0,55.0,30.14,North,-999,-999.0,-999.0,56,-99.99,,,-99.99,,2013-05-08 19:52:00,
2013-05-08 16:02:00,69.0,55.0,30.14,North,-999,-999.0,-999.0,60,-99.99,,,-99.99,,2013-05-08 20:02:00,
2013-05-08 16:11:00,70.0,56.0,30.15,North,-999,-999.0,-999.0,62,-99.99,,,-99.99,,2013-05-08 20:11:00,
2013-05-08 16:22:00,70.0,56.0,30.15,North,-999,-999.0,-999.0,62,-99.99,,,-99.99,,2013-05-08 20:22:00,
2013-05-08 16:32:00,69.0,56.0,30.15,North,-999,-999.0,-999.0,63,-99.99,,,-99.99,,2013-05-08 20:32:00,
2013-05-08 16:42:00,68.0,56.0,30.15,North,-999,-999.0,-999.0,65,-99.99,,,-99.99,,2013-05-08 20:42:00,
2013-05-08 16:52:00,68.0,56.0,30.15,North,-999,-999.0,-999.0,65,-99.99,,,-99.99,,2013-05-08 20:52:00,
2013-05-08 17:01:00,68.0,58.0,30.14,North,-999,-999.0,-999.0,69,-99.99,,,-99.99,,2013-05-08 21:01:00,
2013-05-08 17:12:00,69.0,57.0,30.14,North,-999,-999.0,-999.0,65,-99.99,,,-99.99,,2013-05-08 21:12:00,
2013-05-08 17:21:00,69.0,57.0,30.14,North,-999,-999.0,-999.0,65,-99.99,,,-99.99,,2013-05-08 21:21:00,
2013-05-08 17:33:00,68.0,57.0,30.14,North,-999,-999.0,-999.0,66,-99.99,,,-99.99,,2013-05-08 21:33:00,
2013-05-08 17:43:00,67.0,57.0,30.14,North,-999,-999.0,-999.0,70,-99.99,,,-99.99,,2013-05-08 21:43:00,
2013-05-08 17:52:00,67.0,57.0,30.14,North,-999,-999.0,-999.0,70,-99.99,,,-99.99,,2013-05-08 21:52:00,
2013-05-08 18:03:00,66.0,57.0,30.13,North,-999,-999.0,-999.0,72,-99.99,,,-99.99,,2013-05-08 22:03:00,
2013-05-08 18:12:00,66.0,58.0,30.12,North,-999,-999.0,-999.0,73,-99.99,,,-99.99,,2013-05-08 22:12:00,
2013-05-08 18:22:00,66.0,58.0,30.12,North,-999,-999.0,-999.0,73,-99.99,,,-99.99,,2013-05-08 22:22:00,
2013-05-08 18:33:00,66.0,57.0,30.12,North,-999,-999.0,-999.0,74,-99.99,,,-99.99,,2013-05-08 22:33:00,
2013-05-08 18:42:00,65.0,58.0,30.12,North,-999,-999.0,-999.0,77,-99.99,,,-99.99,,2013-05-08 22:42:00,
2013-05-08 18:52:00,65.0,58.0,30.12,North,-999,-999.0,-999.0,77,-99.99,,,-99.99,,2013-05-08 22:52:00,
2013-05-08 19:02:00,63.0,57.0,30.12,North,-999,-999.0,-999.0,80,-99.99,,,-99.99,,2013-05-08 23:02:00,
2013-05-08 19:11:00,64.0,57.0,30.12,North,-999,-999.0,-999.0,78,-99.99,,,-99.99,,2013-05-08 23:11:00,
2013-05-08 19:22:00,64.0,57.0,30.12,North,-999,-999.0,-999.0,78,-99.99,,,-99.99,,2013-05-08 23:22:00,
2013-05-08 19:32:00,63.0,57.0,30.12,North,-999,-999.0,-999.0,79,-99.99,,,-99.99,,2013-05-08 23:32:00,
2013-05-08 19:42:00,63.0,57.0,30.12,North,-999,-999.0,-999.0,79,-99.99,,,-99.99,,2013-05-08 23:42:00,
2013-05-08 19:52:00,63.0,57.0,30.12,North,-999,-999.0,-999.0,79,-99.99,,,-99.99,,2013-05-08 23:52:00,
2013-05-08 20:02:00,63.0,57.0,30.11,North,-999,-999.0,-999.0,81,-99.99,,,-99.99,,2013-05-09 00:02:00,
2013-05-08 20:12:00,63.0,57.0,30.11,North,-999,-999.0,-999.0,81,-99.99,,,-99.99,,2013-05-09 00:12:00,
2013-05-08 20:21:00,63.0,57.0,30.11,North,-999,-999.0,-999.0,81,-99.99,,,-99.99,,2013-05-09 00:21:00,
2013-05-08 20:32:00,62.0,56.0,30.11,North,-999,-999.0,-999.0,80,-99.99,,,-99.99,,2013-05-09 00:32:00,
2013-05-08 20:42:00,61.0,56.0,30.11,North,-999,-999.0,-999.0,81,-99.99,,,-99.99,,2013-05-09 00:42:00,
2013-05-08 20:52:00,61.0,56.0,30.11,North,-999,-999.0,-999.0,81,-99.99,,,-99.99,,2013-05-09 00:52:00,
2013-05-08 21:01:00,61.0,55.0,30.11,North,-999,-999.0,-999.0,81,-99.99,,,-99.99,,2013-05-09 01:01:00,
2013-05-08 21:12:00,61.0,55.0,30.11,North,-999,-999.0,-999.0,81,-99.99,,,-99.99,,2013-05-09 01:12:00,
2013-05-08 21:22:00,61.0,55.0,30.11,North,-999,-999.0,-999.0,81,-99.99,,,-99.99,,2013-05-09 01:22:00,
2013-05-08 21:32:00,61.0,55.0,30.11,North,-999,-999.0,-999.0,81,-99.99,,,-99.99,,2013-05-09 01:32:00,
2013-05-08 21:42:00,61.0,55.0,30.11,North,-999,-999.0,-999.0,81,-99.99,,,-99.99,,2013-05-09 01:42:00,
2013-05-08 21:52:00,61.0,55.0,30.11,North,-999,-999.0,-999.0,81,-99.99,,,-99.99,,2013-05-09 01:52:00,
2013-05-08 22:02:00,61.0,55.0,30.11,North,-999,-999.0,-999.0,81,-99.99,,,-99.99,,2013-05-09 02:02:00,
2013-05-08 22:11:00,61.0,55.0,30.11,North,-999,-999.0,-999.0,81,-99.99,,,-99.99,,2013-05-09 02:11:00,
2013-05-08 22:22:00,61.0,55.0,30.11,North,-999,-999.0,-999.0,81,-99.99,,,-99.99,,2013-05-09 02:22:00,
2013-05-08 22:33:00,61.0,56.0,30.11,North,-999,-999.0,-999.0,83,-99.99,,,-99.99,,2013-05-09 02:33:00,
2013-05-08 22:42:00,61.0,56.0,30.11,North,-999,-999.0,-999.0,83,-99.99,,,-99.99,,2013-05-09 02:42:00,
2013-05-08 22:52:00,61.0,56.0,30.11,North,-999,-999.0,-999.0,83,-99.99,,,-99.99,,2013-05-09 02:52:00,
2013-05-08 23:02:00,60.0,55.0,30.10,North,-999,-999.0,-999.0,83,-99.99,,,-99.99,,2013-05-09 03:02:00,
2013-05-08 23:11:00,60.0,55.0,30.10,North,-999,-999.0,-999.0,82,-99.99,,,-99.99,,2013-05-09 03:11:00,
2013-05-08 23:21:00,60.0,55.0,30.10,North,-999,-999.0,-999.0,82,-99.99,,,-99.99,,2013-05-09 03:21:00,
2013-05-08 23:33:00,61.0,56.0,30.09,North,-999,-999.0,-999.0,82,-99.99,,,-99.99,,2013-05-09 03:33:00,
2013-05-08 23:43:00,61.0,56.0,30.09,North,-999,-999.0,-999.0,83,-99.99,,,-99.99,,2013-05-09 03:43:00,
2013-05-08 23:53:00,61.0,56.0,30.09,North,-999,-999.0,-999.0,83,-99.99,,,-99.99,,2013-05-09 03:53:00,